Location: Unspecified
(41.1637°N, 24.2901°E)
Time: 10:53:55
(UTC+02:00)

ISS - Pass Details

Date: 13 May 2026
Orbit: 414 x 424 km, 51.6° (Epoch: 12 May)

Event Time Altitude Azimuth Distance (km) Brightness Sun altitude
Rises 21:45:43 0° 293° (WNW) 2,351 1.1 -20.5°
Reaches altitude 10° 21:48:34 10° 320° (NW) 1,489 0.2 -20.8°
Maximum altitude 21:50:27 14° 354° (N) 1,263 -0.6 -21.1°
Drops below altitude 10° 21:52:20 10° 29° (NNE) 1,492 -0.7 -21.3°
Enters shadow 21:54:30 - 51° (NE) 2,114 -0.2 -21.5°
